Regional Weather Roundup
Issued by NWS

Home | Current Version | Previous Version | Graphics & Text | Print | Product List | Glossary On
Versions: 1 2 3 4 5 6 7 8 9 10 11 12 13 14 15 16 17 18 19 20 21 22 23 24 25 26 27
000
ASUS45 KTFX 132210
RWRMT
MONTANA REGIONAL WEATHER ROUNDUP
NATIONAL WEATHER SERVICE GREAT FALLS MT
300 PM MST WED DEC 13 2017

NOTE: "FAIR" INDICATES FEW OR NO CLOUDS BELOW 12000 FEET WITH NO
SIGNIFICANT WEATHER AND/OR OBSTRUCTIONS TO VISIBILITY.

MTZ001>007-043-132300-
WEST OF THE DIVIDE

CITY           SKY/WX    TMP DP  RH WIND       PRES   REMARKS
KALISPELL      FAIR      32  23  69 N3        30.43R
MISSOULA       CLOUDY    28  25  88 NW5       30.39R
BUTTE          CLOUDY    30  25  81 NW8       30.24S WCI  22
MULLAN PASS    FOG       22  22 100 NW3       30.30R VSB 1/4
ANACONDA         N/A     30  27  86 N3        30.28R
DEER LODGE       N/A     28  28 100 CALM      30.31R
EUREKA           N/A     23  18  80 MISG      30.49R
HAMILTON         N/A     28  25  86 CALM      30.37R
LIBBY            N/A     32  23  69 SE5       30.44R
RONAN            N/A     28  25  89 CALM      30.41S
$$

MTZ008-052>055-132300-
SOUTHWEST MONTANA

CITY           SKY/WX    TMP DP  RH WIND       PRES   REMARKS
BOZEMAN        LGT SNOW  30  27  88 CALM      30.26S FOG
DILLON         LGT SNOW  33  31  92 N3        30.22R FOG
W YELLOWSTONE  PTSUNNY   23  19  86 CALM      30.19F
ENNIS          LGT SNOW  30  30 100 N5        30.26R
THREE FORKS      N/A     29  26  88 CALM      30.23R
TWIN BRIDGES     N/A     32  26  78 CALM      30.18F
$$

MTZ009-010-012-014-046-048-049-054-132300-
EAST SLOPES AND CENTRAL MONTANA

CITY           SKY/WX    TMP DP  RH WIND       PRES   REMARKS
CUT BANK       FAIR      43  19  38 W13       30.23S
GREAT FALLS    FAIR      38  29  70 SW10      30.24S WCI  31
MALMSTROM AFB  FAIR      39  31  71 SW14      30.25S WCI  31
HELENA         PTSUNNY   31  30  96 E3        30.27S
BOWMANS CRNR   FAIR      31  30  96 SW8       30.23R WCI  24
CHOTEAU          N/A     41  21  45 N10       30.24F
FAIRFIELD      FAIR      42  20  40 NW8       30.23R
POWER          FAIR      42  21  43 NW10      30.22S
RAYNESFORD     FAIR      38  29  69 W8        30.24R
ULM            FAIR      38  32  77 SW5       30.25S
$$

MTZ011-013-016-021-045-047-050-051-132300-
NORTH CENTRAL MONTANA

CITY           SKY/WX    TMP DP  RH WIND       PRES   REMARKS
HAVRE          FAIR      37  23  56 SW17      30.19F WCI  27
LEWISTOWN      FAIR      37  24  59 SW5       30.21R
N BAR RANCH    PTSUNNY   37  19  48 NW24G31   30.18R WCI  26
CHINOOK          N/A     41  25  52 W16       30.17S
DENTON         FAIR      40  22  48 NW24G33   30.17S
GEYSER         FAIR      37  28  69 W17       30.21R WCI  28
GRASS RANGE    CLOUDY    38  22  52 W17G23    30.15S WCI  29
STANFORD       FAIR      37  27  66 NW17      30.21R WCI  27
WINIFRED       FAIR      37  21  51 W8        30.19S WCI  31
$$

MTZ017>020-022>027-061-062-132300-
NORTHEAST MONTANA

CITY           SKY/WX    TMP DP  RH WIND       PRES   REMARKS
GLASGOW        MOCLDY    40  26  57 W7        30.09F
GLENDIVE       MOCLDY    40  26  57 NW20      30.07S
JORDAN           N/A     42  24  49 NW17      30.11S
SIDNEY         FAIR      38  26  62 W14       30.05S WCI  30
WOLF POINT     CLOUDY    42  28  57 W16       30.08S
MALTA          CLEAR     39  25  56 W10       30.14S
PLENTYWOOD       N/A     37  27  65 W8        30.01S WCI  31
POPLAR           N/A     43  27  52 W16       30.06S
$$

MTZ028>42-056>058-132300-
SOUTHCENTRAL AND SOUTHEAST MONTANA

CITY           SKY/WX    TMP DP  RH WIND       PRES   REMARKS
BAKER          MOCLDY    38  26  62 NW16G22   30.06S WCI  29
BILLINGS       CLOUDY    42  30  62 W16       30.16S
LIVINGSTON     LGT SNOW  33  33 100 W8        30.22S FOG     WCI  26
MILES CITY     CLOUDY    42  26  53 NW13      30.11S
BIG TIMBER     MOSUNNY   34  32  93 N5        30.25R FOG
FORSYTH          N/A     43  21  42 W10       30.13S
LAUREL           N/A     43  30  61 W13       30.19S
ROUNDUP          N/A     45  19  35 N14       30.06S
$$

REGIONAL REPORTS...DAKOTAS

CITY           SKY/WX    TMP DP  RH WIND       PRES   REMARKS
WILLISTON      FAIR      40  25  55 NW18      30.02R
MINOT          CLOUDY    35  27  72 NW16      29.94R WCI  25
DICKINSON      FAIR      37  23  56 W16       29.98R WCI  28
BEACH          CLOUDY    37  23  56 NW13G21   30.08R WCI  29
CROSBY         FAIR      34  28  80 NW7       30.00R WCI  28
TIOGA          FAIR      32  30  93 NW8G15    29.99S WCI  25
WATFORD CITY   FAIR      39  25  56 NW9       30.00S
BISMARCK       CLOUDY    36  26  67 NW20      29.97R WCI  25
GRAND FORKS    FLURRIES  22  18  85 N21       29.91R WCI   6
FARGO          CLOUDY    25  21  85 N20G26    29.89R WCI  11
BUFFALO SD       N/A     40  23  50 NW24      29.97S
RAPID CITY     FAIR      43  24  47 N21G30    30.03R
$$

REGIONAL REPORTS...WYOMING/IDAHO/WASHINGTON

CITY           SKY/WX    TMP DP  RH WIND       PRES   REMARKS
GILLETTE       FAIR      40  18  41 N13       30.08F
SHERIDAN       CLOUDY    42  20  41 NW10      30.14R
BUFFALO WY     CLOUDY    41  15  35 N16       30.12R
CODY           LGT RAIN  35  25  66 N10       30.19R WCI  27
YELLOWSTONE LA   N/A     23  21  92 CALM      30.18F
IDAHO FALLS    CLOUDY    26  22  84 SW7       30.24S WCI  18
SALMON         FLURRIES  25  20  81 CALM      30.35S
BOISE          CLOUDY    25  21  85 NW8       30.40R WCI  16
SPOKANE        CLOUDY    29  25  85 CALM      30.48S
$$

REGIONAL REPORTS...ALBERTA

CITY           SKY/WX    TMP DP  RH WIND       PRES   REMARKS
EDMONTON       PTCLDY    39  27  60 W16       30.22R WCI  30
CALGARY        PTCLDY    43  25  49 N14G21    30.27R
LETHBRIDGE     MOCLDY    45  21  39 NW8       30.26R
MEDICINE HAT   PTCLDY    45  27  49 NW16G25   30.19R
$$

REGIONAL REPORTS...SASKATCHEWAN

CITY           SKY/WX    TMP DP  RH WIND       PRES   REMARKS
SWIFT CURRENT  CLEAR     37  27  65 W14G20    30.05R WCI  29
REGINA         PTCLDY    36  30  80 W13       29.98S WCI  27
SASKATOON      MOCLDY    36  30  80 W12       29.98F WCI  27
$$




USA.gov is the U.S. government's official web portal to all federal, state and local government web resources and services.